Location: Beaver Brook Trail
(44.0290°N, 71.8137°W)
Time: 04:06:37
(UTC+00:00)

SR - Pass Details

Date: 15 November 2024
Orbit: 573 x 858 km, 66.7° (Epoch: 03 December)

Event Time Altitude Azimuth Distance (km) Brightness Sun altitude
Exits shadow 10:16:48 - 340° (NNW) 2,768 ? -15.5°
Reaches altitude 10° 10:18:26 10° 350° (N) 2,258 ? -15.2°
Maximum altitude 10:22:39 25° 45° (NE) 1,549 ? -14.5°
Drops below altitude 10° 10:27:07 10° 99° (E) 2,393 ? -13.7°
Sets 10:30:04 0° 112° (ESE) 3,360 ? -13.2°
